Погода Жамбейты

Погода Жамбейты : погода сейчас, прогноз погоды и архив. Всё, что Вы хотите узнать о погоде Жамбейты!

Хотите узнать прогноз погоды Жамбейты? Тогда Вам сюда: Погода Жамбейты

Поиск расширенной информации на нашем сайте:

Другие новости

Новости СМИ2

Главная страница сайта

Новости сайта

03.07.2017

Напоминаем, что на нашем специализированном сайте Метеоцентр.Азия вы можете получить высокодетализированные автоматические прогнозы погоды по пунктам России, СНГ и мира в авиационном формате (включающие направление и скорость ветра, видимость, явления погоды, количество и форму облачности, нижнюю и верхнюю границу облачности).

Рекомендуем: печать на баннере, оригинальная печать на баннере

Погода Жамбейты - сегодня

Время (UTC), дата Ветер
(°,м/с) 
Видим.   Явления Облачность Т
(°С)
Тd
(°С)
f(%) Тe
(°С)
Pmin
(гПа)
dP
(гПа)
Po
(мм)
O2
(г/м3)
Тmin Tmax R s Состояние
почвы
09 17.07.18 160 (Ю) 11{16}  20000 м    9/9 600 м кучево-дожд. 
[Cb cap]
+26.5 +16.5 54 +38  1003.9  750  272           
12 17.07.18 160 (Ю) 8{20}  20000 м    9/9 600 м кучево-дожд. 
[Cb cap]
+30.7 +16.4 42 +42  1002.9  -1  749  268           
15 17.07.18 160 (Ю) 20000 м  {ливн. осадки}  8/8 600 м кучево-дожд. 
[Cb cap]
+30.2 +16.9 45 +42  1002.2  -0.7  749  268    +31       
21 17.07.18 110 (В) н/о    ясно 
+23 +12.1 50 +27  1003.5  750  276           
00 18.07.18 150 (ЮВ) 20000 м    6/0 верхняя 
[Ci ing]
+20 +9.7 51 +21  1003.1  -0.4  750  280           
03 18.07.18 210 (ЮЗ) 20000 м    4/0 средняя 
[Ac trans]
+23 +14.6 59 +31  1003.5  0.4  750  276           
06 18.07.18 220 (ЮЗ) 20000 м    9/6 1000 м средняя, верхняя 
[Cu med, cong|Ac cast|Ci sp]
+31.2 +12.5 32 +36  1004.2  0.8  751  269  +20         
09 18.07.18 230 (ЮЗ) 20000 м  гроза без осадков  9/9 600 м кучево-дожд. 
[Cb cap]
+29.6 +12.4 35 +34  1003.9  -0.3  750  270           
12 18.07.18 300 (СЗ) 20000 м  {гроза}  8/8 1000 м 
[Cu med, cong]
+33.2 +9.4 23 +34  1002.8  -1  750  268           
15 18.07.18 290 (З) 20000 м    6/5 1000 м верхняя 
[Cu med, cong|Ci fib]
+32.5 +10.6 26 +34  1003.5  0.6  750  268    +34.3       
18 18.07.18 тихо ()   н/о    4/4 1000 м 
[Cu med, cong]
+26 +13.4 46 +32  1005.2  1.7  751  274    +34.3       
21 18.07.18 150 (ЮВ) н/о    3/0 верхняя 
[Ci fib]
+22.2 +15.7 67 +32  1005.3  751  277           
00 19.07.18 130 (ЮВ) 20000 м    ясно 
+19.5 +16.5 83 +32  1006.1  0.8  752  279           
03 19.07.18 тихо ()   20000 м    ясно 
+23.5 +14.2 56 +31  1007.2  1.1  753  276           
06 19.07.18 тихо ()   20000 м    3/1 1000 м средняя, верхняя 
[Cu med, cong|Ac trans|Ci fib]
+32.6 +11.3 27 +35  1007  -0.1  753  269  +18.6         
09 19.07.18 360 (С) 20000 м    6/6 1000 м 
[Cu med, cong]
+34.5 +10 22 +36  1006.4  -0.5  752  267           
12 19.07.18 360 (С) 20000 м    6/6 1000 м 
[Cu med, cong]
+36.2 +9.7 20 +37  1005.6  -0.8  752  266           
15 19.07.18 020 (С) 20000 м    8/8 600 м кучево-дожд. 
[Cb cap]
+32.4 +12.7 30 +37  1005.8  0.1  752  268    +36.7       
18 19.07.18 050 (СВ) н/о  в посл. час гроза{ливн. осадки}  8/8 600 м кучево-дожд. 
[Cb cap]
+27.2 +13.8 44 +34  1006.2  0.4  752  273    +36.7       
21 19.07.18 тихо ()   н/о    5/5 600 м кучево-дожд. 
[Cb cap]
+28.1 +12.8 39 +33  1006.8  0.6  752  272           
00 20.07.18 080 (В) 20000 м    8/6 1000 м верхняя 
[Cu med, cong|Ci fib]
+24 +14.8 56 +32  1006.2  -0.7  752  275           
03 20.07.18 120 (ЮВ) 20000 м    9/8 1000 м средняя, верхняя 
[Cu med, cong|Ac trans|Ci fib]
+26.9 +13.6 44 +33  1005.6  -0.5  752  273      0.0     
06 20.07.18 140 (ЮВ) 20000 м    9/8 1000 м верхняя 
[Cu med, cong|Ci fib]
+31.3 +13.8 35 +38  1005.1  -0.5  751  269  +23.6    0.0     
09 20.07.18 160 (Ю) 20000 м    6/6 1000 м 
[Cu med, cong]
+35.1 +11.3 24 +38  1004.5  -0.5  751  266           
12 20.07.18 240 (ЮЗ) 20000 м    9/9 600 м кучево-дожд. 
[Cb cap]
+34 +11.3 25 +37  1004.4  -0.1  751  267           
Время (UTC), дата Ветер
(°,м/с) 
Видим.   Явления Облачность Т
(°С)
Тd
(°С)
f(%) Тe
(°С)
Pmin
(гПа)
dP
(гПа)
Po
(мм)
O2
(г/м3)
Тmin Tmax R s Состояние
почвы

Для получения пояснительной информации подведите курсор к названию столбца.

ПОГОДА Жамбейты - архив

Всё, что Вы хотите узнать о погоде Жамбейты - удобно и подробно!

Выберите нужную дату (начиная с 1 января 2015* года) и нажмите кнопку "Найти".
Будут отображены архивные сводки погоды по пункту Жамбейты, начиная с указанной даты.


Отображать данные в формате CSV (для использования в таблицах Excel)


Внимание! Наш архив погоды предназначен исключительно для личного некоммерческого использования в познавательных целях. Если Вам необходимы официальные справки о состоянии погоды (для производственных, юридических, коммерческих и т.п. целей), обращайтесь в органы Росгидромета.

*Примечание: данная дата относится к архиву по метеостанциям СССР (Россия, СНГ, Балтия).
Архив по метеостанциям Зарубежной Европы и Азии (кроме Китая) хранится 10 дней, по другим регионам земного шара (Китай, Африка, Америка, Австралия, Океания) - 1 день.

Жамбейты - район местоположения метеостанции


Название, широта, долгота, высота метеостанции:
Жамбейты 50.2°ш. 52.6°д. 32 м над ур. моря [Казахстан]

Дополнительная информация

В oтличие oт бoльшинства пoгoдных сайтoв мы публикуем пoдрoбную метеoинфoрмацию в детальнoм прoфессиoнальнoм фoрмате.

Характеристики температуры и влажнoсти вoздуха измеряются на высoте 2 м в тени вдали oт зданий и деревьев.
Скoрoсть ветра измеряется на высoте 10 м (на урoвне рoста челoвека скoрoсть ветра ниже в 1.5-2 раза). Если метеoстанция нахoдится в гoрoде или в лесу, тo скoрoсть ветра занижена на 2-4 м/с пo сравнению с oткрытым местoм. Скoрoсть ветра над акватoриями крупных рек и oзёр, а также на вершинах хoлмoв на 2-5 м/с выше, чем в oбычных услoвиях.
Атмoсфернoе давление в разных тoчках местнoсти мoжет значительнo oтличаться oт давления на метеoстанции, в зависимoсти oт услoвий рельефа (при пoдъёме на 10 м давление пoнижается примернo на 1 мм рт.ст.).